GW1037 Weather Reports


time (UTC)temp
C
wind
direction
speed
KPH
gust
KPH
rain 1hr
cm
rain 24hr
cm
rain mn
cm
humidity
%
barometer
mb
20260510202404 25 103 0.0 0.0 0.00 0.00 0.00 69 1001.0
20260510201901 25 105 0.0 0.0 0.00 0.00 0.00 70 1001.0
20260510201358 26 122 0.0 0.0 0.00 0.00 0.00 70 1000.9
20260510200855 26 124 0.0 0.0 0.00 0.00 0.00 71 1001.0
20260510200354 26 114 0.0 0.0 0.00 0.00 0.00 70 1001.1
20260510195849 25 125 0.0 0.0 0.00 0.00 0.00 70 1001.0
20260510195346 25 90 0.0 0.0 0.00 0.00 0.00 71 1001.2
20260510194840 25 90 0.0 0.0 0.00 0.00 0.00 72 1001.0
20260510194338 24 90 0.0 0.0 0.00 0.00 0.00 74 1001.2
20260510193833 24 89 0.0 0.0 0.00 0.00 0.00 73 1001.2
20260510193328 25 89 0.0 0.0 0.00 0.00 0.00 71 1000.9
20260510192824 25 90 0.0 0.0 0.00 0.00 0.00 72 1001.1
20260510192319 26 129 0.0 0.0 0.00 0.00 0.00 72 1001.3
20260510191816 25 97 0.0 0.0 0.00 0.00 0.00 73 1001.4
20260510191311 25 97 0.0 0.0 0.00 0.00 0.00 75 1001.1
20260510190810 24 97 0.0 0.0 0.00 0.00 0.00 74 1001.3
20260510190307 25 133 0.0 0.0 0.00 0.00 0.00 74 1001.6
20260510185803 25 63 0.0 0.0 0.00 0.00 0.00 72 1001.5
20260510185305 25 103 0.0 0.0 0.00 0.00 0.00 72 1001.4
20260510184758 24 107 0.0 0.0 0.00 0.00 0.00 75 1001.6
20260510184254 23 122 0.0 0.0 0.00 0.00 0.00 77 1001.4
20260510183749 23 120 0.0 0.0 0.00 0.00 0.00 78 1001.5
20260510183244 24 317 0.0 0.0 0.00 0.00 0.00 76 1001.8
20260510182741 24 81 0.0 0.0 0.00 0.00 0.00 78 1001.8
20260510182236 23 94 0.0 0.0 0.00 0.00 0.00 80 1001.7
20260510181734 23 137 0.0 0.0 0.00 0.00 0.00 80 1001.8
20260510181231 23 100 0.0 0.0 0.00 0.00 0.00 79 1001.7
20260510180727 23 102 0.0 0.0 0.00 0.00 0.00 77 1001.7
20260510180224 23 114 0.0 0.0 0.00 0.00 0.00 78 1002.1
20260510175720 23 110 0.0 0.0 0.00 0.00 0.00 81 1001.9
20260510175216 23 104 0.0 0.0 0.00 0.00 0.00 82 1002.2
20260510174714 22 109 0.0 0.0 0.00 0.00 0.00 82 1002.0
20260510174211 22 105 0.0 0.0 0.00 0.00 0.00 82 1002.1
20260510173707 22 105 0.0 0.0 0.00 0.00 0.00 84 1002.0
20260510173203 22 99 0.0 0.0 0.00 0.00 0.00 87 1002.2
20260510172658 21 96 0.0 0.0 0.00 0.00 0.00 87 1002.5
20260510172154 21 97 0.0 0.0 0.00 0.00 0.00 87 1002.5
20260510171651 21 97 0.0 0.0 0.00 0.00 0.00 88 1002.5
20260510171149 21 99 0.0 0.0 0.00 0.00 0.00 88 1002.3
20260510170645 20 100 0.0 0.0 0.00 0.00 0.00 90 1002.5
20260510170142 20 105 0.0 0.0 0.00 0.00 0.00 92 1002.7
20260510165637 20 111 0.0 0.0 0.00 0.00 0.00 92 1002.7
20260510165133 20 101 0.0 0.0 0.00 0.00 0.00 92 1002.8
20260510164631 20 101 0.0 0.0 0.00 0.00 0.00 92 1002.8
20260510164128 20 111 0.0 0.0 0.00 0.00 0.00 92 1002.7
20260510163623 20 99 0.0 0.0 0.00 0.00 0.00 92 1002.8
20260510163120 20 105 0.0 0.0 0.00 0.00 0.00 92 1002.5
20260510162614 20 111 0.0 0.0 0.00 0.00 0.00 92 1002.4
20260510162111 20 104 0.0 0.0 0.00 0.00 0.00 92 1002.5
20260510161606 20 112 0.0 0.0 0.00 0.00 0.00 93 1002.6
20260510161104 20 96 0.0 0.0 0.00 0.00 0.00 93 1002.7
20260510160601 20 97 0.0 0.0 0.00 0.00 0.00 94 1002.5
20260510160100 20 100 0.0 0.0 0.00 0.00 0.00 95 1002.7
20260510155557 20 103 0.0 0.0 0.00 0.00 0.00 95 1002.5
20260510155054 19 103 0.0 0.0 0.00 0.00 0.00 95 1002.6
20260510154549 19 104 0.0 0.0 0.00 0.00 0.00 96 1002.7
20260510154045 19 107 0.0 0.0 0.00 0.00 0.00 96 1002.7
20260510153540 19 107 0.0 0.0 0.00 0.00 0.00 97 1002.7
20260510153037 19 107 0.0 0.0 0.00 0.00 0.00 98 1002.5
20260510152534 18 112 0.0 0.0 0.00 0.00 0.00 98 1002.8
20260510152030 18 107 0.0 0.0 0.00 0.00 0.00 99 1002.7
20260510151527 18 107 0.0 0.0 0.00 0.00 0.00 99 1002.5
20260510151024 18 111 0.0 0.0 0.00 0.00 0.00 99 1002.6
20260510150519 18 104 0.0 0.0 0.00 0.00 0.00 99 1002.8
20260510150015 18 103 0.0 0.0 0.00 0.00 0.00 99 1002.4
20260510145512 18 105 0.0 0.0 0.00 0.00 0.00 99 1002.6
20260510145008 18 118 0.0 0.0 0.00 0.00 0.00 99 1002.7
20260510144505 18 118 0.0 0.0 0.00 0.00 0.00 99 1002.5
20260510144001 17 117 0.0 0.0 0.00 0.00 0.00 99 1002.5
20260510143451 18 116 0.0 0.0 0.00 0.00 0.00 99 1002.4
20260510142948 18 118 0.0 0.0 0.00 0.00 0.00 99 1002.5
20260510142445 18 99 0.0 0.0 0.00 0.00 0.00 99 1002.6
20260510141941 18 105 0.0 0.0 0.00 0.00 0.00 99 1002.5
20260510141438 17 110 0.0 0.0 0.00 0.00 0.00 99 1002.5
20260510140935 17 100 0.0 0.0 0.00 0.00 0.00 99 1002.5
20260510140432 17 109 0.0 0.0 0.00 0.00 0.00 99 1002.4
20260510135930 17 109 0.0 0.0 0.00 0.00 0.00 99 1002.3
20260510135427 17 105 0.0 0.0 0.00 0.00 0.00 99 1002.4
20260510134924 17 104 0.0 0.0 0.00 0.00 0.00 99 1002.1
20260510134421 17 105 0.0 0.0 0.00 0.00 0.00 99 1002.3
20260510133917 17 104 0.0 0.0 0.00 0.00 0.00 99 1002.2
20260510133413 17 106 0.0 0.0 0.00 0.00 0.00 99 1002.4
20260510132909 17 105 0.0 0.0 0.00 0.00 0.00 99 1002.3
20260510132407 17 128 0.0 0.0 0.00 0.00 0.00 99 1002.2
20260510131903 17 107 0.0 0.0 0.00 0.00 0.00 99 1002.2
20260510131401 17 107 0.0 0.0 0.00 0.00 0.00 99 1002.1
20260510130857 17 77 0.0 0.0 0.00 0.00 0.00 99 1002.0
20260510130355 17 113 0.0 0.0 0.00 0.00 0.00 99 1001.8
20260510125851 17 113 0.0 0.0 0.00 0.00 0.00 99 1002.1
20260510125347 17 113 0.0 0.0 0.00 0.00 0.00 99 1001.9
20260510124845 17 97 0.0 0.0 0.00 0.00 0.00 99 1002.0
20260510124341 17 97 0.0 0.0 0.00 0.00 0.00 99 1002.0
20260510123837 17 97 0.0 0.0 0.00 0.00 0.00 99 1001.8
20260510123333 17 97 0.0 0.0 0.00 0.00 0.00 99 1001.7
20260510122829 17 97 0.0 0.0 0.00 0.00 0.00 99 1001.5
20260510122325 17 97 0.0 0.0 0.00 0.00 0.00 99 1001.5
20260510121822 17 99 0.0 0.0 0.00 0.00 0.00 99 1001.6
20260510121320 17 97 0.0 0.0 0.00 0.00 0.00 99 1001.5
20260510120816 17 97 0.0 0.0 0.00 0.00 0.00 99 1001.4
20260510120313 17 100 0.0 0.0 0.00 0.00 0.00 99 1001.2
20260510115809 17 100 0.0 0.0 0.00 0.00 0.00 99 1001.2
20260510115307 17 113 0.0 0.0 0.00 0.00 0.00 99 1001.3
20260510114802 17 113 0.0 0.0 0.00 0.00 0.00 99 1001.0
20260510114259 17 113 0.0 0.0 0.00 0.00 0.00 99 1001.0
20260510113754 17 113 0.0 0.0 0.00 0.00 0.00 99 1000.7
20260510113252 17 113 0.0 0.0 0.00 0.00 0.00 99 1000.8
20260510112747 17 113 0.0 0.0 0.00 0.00 0.00 99 1000.6
20260510112245 17 113 0.0 0.0 0.00 0.00 0.00 99 1000.4
20260510111740 17 113 0.0 0.0 0.00 0.00 0.00 99 1000.2
20260510111237 17 113 0.0 0.0 0.00 0.00 0.00 99 1000.2
20260510110737 17 113 0.0 0.0 0.00 0.00 0.00 99 1000.2
20260510110235 17 113 0.0 0.0 0.00 0.00 0.00 99 1000.1
20260510105734 17 116 0.0 0.0 0.00 0.00 0.00 99 1000.1
20260510105230 17 116 0.0 0.0 0.00 0.00 0.00 99 999.8
20260510104726 17 116 0.0 0.0 0.00 0.00 0.00 99 999.6
20260510104224 17 116 0.0 0.0 0.00 0.00 0.00 99 1000.1
20260510103720 17 116 0.0 0.0 0.00 0.00 0.00 99 999.6
20260510103218 16 116 0.0 0.0 0.00 0.00 0.00 99 999.5
20260510102717 16 116 0.0 0.0 0.00 0.00 0.00 99 999.9
20260510102213 16 116 0.0 0.0 0.00 0.00 0.00 99 999.7
20260510101711 16 116 0.0 0.0 0.00 0.00 0.00 99 999.6
20260510101209 16 116 0.0 0.0 0.00 0.00 0.00 99 999.6
20260510100704 16 116 0.0 0.0 0.00 0.00 0.00 99 999.5
20260510100203 16 116 0.0 0.0 0.00 0.00 0.00 99 999.4
20260510095658 16 116 0.0 0.0 0.00 0.00 0.00 99 999.3
20260510095153 16 116 0.0 0.0 0.00 0.00 0.00 99 999.5
20260510094652 16 115 0.0 0.0 0.00 0.00 0.00 99 999.1
20260510094148 16 115 0.0 0.0 0.00 0.00 0.00 99 999.0
20260510093644 16 115 0.0 0.0 0.00 0.00 0.00 99 999.0
20260510093142 16 124 0.0 0.0 0.00 0.00 0.00 99 998.9
20260510092638 16 91 0.0 0.0 0.00 0.00 0.00 99 998.9
20260510092133 16 91 0.0 0.0 0.00 0.00 0.00 99 998.7
20260510091629 16 91 0.0 0.0 0.00 0.00 0.00 99 998.8
20260510091126 16 91 0.0 0.0 0.00 0.00 0.00 99 998.6
20260510090623 16 91 0.0 0.0 0.00 0.00 0.00 99 998.5
20260510090119 16 91 0.0 0.0 0.00 0.00 0.00 99 998.5
20260510085614 17 91 0.0 0.0 0.00 0.00 0.00 99 998.4
20260510085109 17 91 0.0 0.0 0.00 0.00 0.00 99 998.5
20260510084606 17 91 0.0 0.0 0.00 0.00 0.00 99 998.4
20260510084103 17 91 0.0 0.0 0.00 0.00 0.00 99 998.2
20260510083559 17 91 0.0 0.0 0.00 0.00 0.00 99 998.5
20260510083055 17 91 0.0 0.0 0.00 0.00 0.00 99 998.3
20260510082553 17 91 0.0 0.0 0.00 0.00 0.00 99 998.5
20260510082048 17 91 0.0 0.0 0.00 0.00 0.00 99 998.3
20260510081543 17 91 0.0 0.0 0.00 0.00 0.00 99 998.5
20260510081039 17 91 0.0 0.0 0.00 0.00 0.00 99 998.0
20260510080538 17 91 0.0 0.0 0.00 0.00 0.00 99 998.3
20260510080035 17 91 0.0 0.0 0.00 0.00 0.00 99 998.0
20260510075527 17 91 0.0 0.0 0.00 0.00 0.00 99 998.0
20260510075024 17 91 0.0 0.0 0.00 0.00 0.00 99 998.2
20260510074522 17 91 0.0 0.0 0.00 0.00 0.00 99 998.2
20260510074017 17 91 0.0 0.0 0.00 0.00 0.00 99 998.1
20260510073513 17 91 0.0 0.0 0.00 0.00 0.00 99 998.2
20260510073010 17 91 0.0 0.0 0.00 0.00 0.00 99 998.3
20260510072507 17 91 0.0 0.0 0.00 0.00 0.00 99 998.0
20260510072002 17 91 0.0 0.0 0.00 0.00 0.00 99 998.4
20260510071458 17 91 0.0 0.0 0.00 0.00 0.00 99 998.2
20260510070957 17 91 0.0 0.0 0.00 0.00 0.00 99 998.4
20260510070454 17 91 0.0 0.0 0.00 0.00 0.00 99 998.3
20260510065949 17 91 0.0 0.0 0.00 0.00 0.00 99 998.3
20260510065447 17 91 0.0 0.0 0.00 0.00 0.00 99 998.3
20260510064942 17 91 0.0 0.0 0.00 0.00 0.00 99 998.4
20260510064440 17 91 0.0 0.0 0.00 0.00 0.00 99 998.5
20260510063936 17 91 0.0 0.0 0.00 0.00 0.00 99 998.6
20260510063432 17 91 0.0 0.0 0.00 0.00 0.00 99 998.5
20260510062931 17 91 0.0 0.0 0.00 0.00 0.00 99 998.6
20260510062431 17 91 0.0 0.0 0.00 0.00 0.00 99 998.6
20260510061926 17 91 0.0 0.0 0.00 0.00 0.00 99 998.9
20260510061423 17 91 0.0 0.0 0.00 0.00 0.00 99 998.7
20260510060919 17 91 0.0 0.0 0.00 0.00 0.00 99 998.8
20260510060417 17 91 0.0 0.0 0.00 0.00 0.00 99 998.7
20260510055913 17 91 0.0 0.0 0.00 0.00 0.00 99 998.8
20260510055408 16 91 0.0 0.0 0.00 0.00 0.00 99 998.6
20260510054907 16 91 0.0 0.0 0.00 0.00 0.00 99 998.5
20260510054402 16 91 0.0 0.0 0.00 0.00 0.00 99 998.6
20260510053857 16 91 0.0 0.0 0.00 0.00 0.00 99 998.8
20260510053353 16 91 0.0 0.0 0.00 0.00 0.00 99 998.7
20260510052849 16 91 0.0 0.0 0.00 0.00 0.00 99 998.9
20260510052345 16 91 0.0 0.0 0.00 0.00 0.00 99 999.0
20260510051842 16 91 0.0 0.0 0.00 0.00 0.00 99 999.0
20260510051338 16 91 0.0 0.0 0.00 0.00 0.00 99 998.9
20260510050835 16 91 0.0 0.0 0.00 0.00 0.00 99 998.8
20260510050332 17 91 0.0 0.0 0.00 0.00 0.00 99 998.7
20260510045829 17 91 0.0 0.0 0.00 0.00 0.00 99 998.9
20260510045326 17 91 0.0 0.0 0.00 0.00 0.00 99 998.7
20260510044823 17 91 0.0 0.0 0.00 0.00 0.00 99 998.9
20260510044320 17 91 0.0 0.0 0.00 0.00 0.00 99 998.9
20260510043816 17 91 0.0 0.0 0.00 0.00 0.00 99 998.9
20260510043312 17 91 0.0 0.0 0.00 0.00 0.00 99 998.6
20260510042810 17 91 0.0 0.0 0.00 0.00 0.00 99 998.8
20260510042307 17 91 0.0 0.0 0.00 0.00 0.00 99 998.9
20260510041802 17 91 0.0 0.0 0.00 0.00 0.00 99 998.9
20260510041259 17 91 0.0 0.0 0.00 0.00 0.00 99 999.1
20260510040757 17 91 0.0 0.0 0.00 0.00 0.00 99 999.0
20260510040248 17 91 0.0 0.0 0.00 0.00 0.00 99 999.0
20260510035743 17 91 0.0 0.0 0.00 0.00 0.00 99 999.0
20260510035239 17 91 0.0 0.0 0.00 0.00 0.00 99 999.2
20260510034735 17 91 0.0 0.0 0.00 0.00 0.00 99 999.1
20260510034233 17 91 0.0 0.0 0.00 0.00 0.00 99 998.9
20260510033729 17 91 0.0 0.0 0.00 0.00 0.00 99 998.9
20260510033227 18 91 0.0 0.0 0.00 0.00 0.00 99 999.0
20260510032723 18 91 0.0 0.0 0.00 0.00 0.00 99 999.2
20260510032219 18 91 0.0 0.0 0.00 0.00 0.00 99 999.2
20260510031714 18 91 0.0 0.0 0.00 0.00 0.00 99 999.4
20260510031211 18 91 0.0 0.0 0.00 0.00 0.00 99 999.0
20260510030709 18 91 0.0 0.0 0.00 0.00 0.00 99 999.3
20260510030208 18 91 0.0 0.0 0.00 0.00 0.00 99 998.9
20260510025705 18 91 0.0 0.0 0.00 0.00 0.00 99 998.8
20260510025202 18 91 0.0 0.0 0.00 0.00 0.00 99 998.7
20260510024659 18 91 0.0 0.0 0.00 0.00 0.00 99 998.9
20260510024155 18 91 0.0 0.0 0.00 0.00 0.00 99 999.0
20260510023651 18 91 0.0 0.0 0.00 0.00 0.00 99 999.1
20260510023148 18 91 0.0 0.0 0.00 0.00 0.00 99 998.9
20260510022643 18 91 0.0 0.0 0.00 0.00 0.00 99 998.7
20260510022139 18 91 0.0 0.0 0.00 0.00 0.00 98 998.6
20260510021634 19 91 0.0 0.0 0.00 0.00 0.00 98 998.7
20260510021131 19 91 0.0 0.0 0.00 0.00 0.00 98 998.8
20260510020626 19 91 0.0 0.0 0.00 0.00 0.00 98 998.5
20260510020121 19 91 0.0 0.0 0.00 0.00 0.00 98 998.3
20260510015618 19 91 0.0 0.0 0.00 0.00 0.00 97 998.3
20260510015114 19 91 0.0 0.0 0.00 0.00 0.00 97 998.2
20260510014610 19 91 0.0 0.0 0.00 0.00 0.00 97 998.3
20260510014108 19 91 0.0 0.0 0.00 0.00 0.00 97 998.0
20260510013601 19 91 0.0 0.0 0.00 0.00 0.00 96 997.9
20260510013057 19 91 0.0 0.0 0.00 0.00 0.00 96 997.7
20260510012551 19 93 0.0 0.0 0.00 0.00 0.00 96 997.8
20260510012048 19 93 0.0 0.0 0.00 0.00 0.00 96 997.7
20260510011548 19 93 0.0 0.0 0.00 0.00 0.00 96 997.6
20260510011044 19 94 0.0 0.0 0.00 0.00 0.00 96 997.2
20260510010541 19 94 0.0 0.0 0.00 0.00 0.00 95 997.4
20260510010038 20 94 0.0 0.0 0.00 0.00 0.00 95 997.4
20260510005533 20 94 0.0 0.0 0.00 0.00 0.00 95 997.4
20260510005031 20 94 0.0 0.0 0.00 0.00 0.00 95 997.3
20260510004529 20 94 0.0 0.0 0.00 0.00 0.00 94 997.1
20260510004027 20 94 0.0 0.0 0.00 0.00 0.00 94 997.1
20260510003523 20 100 0.0 0.0 0.00 0.00 0.00 94 997.4
20260510003018 20 100 0.0 0.0 0.00 0.00 0.00 94 997.3
20260510002514 20 104 0.0 0.0 0.00 0.00 0.00 94 997.1
20260510002011 20 94 0.0 0.0 0.00 0.00 0.00 94 997.1
20260510001508 20 96 0.0 0.0 0.00 0.00 0.00 93 997.2
20260510001006 20 109 0.0 0.0 0.00 0.00 0.00 93 997.2
20260510000501 20 100 0.0 0.0 0.00 0.00 0.00 93 996.9
20260509235958 20 100 0.0 0.0 0.00 0.00 0.00 92 997.0
20260509235455 20 100 0.0 0.0 0.00 0.00 0.00 92 997.1
20260509234951 20 100 0.0 0.0 0.00 0.00 0.00 91 996.7
20260509234448 20 101 0.0 0.0 0.00 0.00 0.00 90 996.4
20260509233946 20 102 0.0 0.0 0.00 0.00 0.00 89 996.4
20260509233443 21 102 0.0 0.0 0.00 0.00 0.00 89 996.6
20260509232939 21 102 0.0 0.0 0.00 0.00 0.00 88 996.4
20260509232438 21 102 0.0 0.0 0.00 0.00 0.00 88 996.2
20260509231933 21 102 0.0 0.0 0.00 0.00 0.00 88 996.3
20260509231429 21 102 0.0 0.0 0.00 0.00 0.00 89 996.3
20260509230928 21 102 0.0 0.0 0.00 0.00 0.00 88 996.5
20260509230424 21 102 0.0 0.0 0.00 0.00 0.00 87 996.4
20260509225920 21 102 0.0 0.0 0.00 0.00 0.00 86 996.4
20260509225417 21 102 0.0 0.0 0.00 0.00 0.00 86 996.5
20260509224913 21 103 0.0 0.0 0.00 0.00 0.00 86 996.2
20260509224403 21 103 0.0 0.0 0.00 0.00 0.00 85 996.0
20260509223900 22 103 0.0 0.0 0.00 0.00 0.00 84 996.2
20260509223351 22 104 0.0 0.0 0.00 0.00 0.00 83 996.1
20260509222848 22 96 0.0 0.0 0.00 0.00 0.00 84 996.4
20260509222343 22 109 0.0 0.0 0.00 0.00 0.00 84 996.1
20260509221838 22 109 0.0 0.0 0.00 0.00 0.00 83 996.0
20260509221336 22 100 0.0 0.0 0.00 0.00 0.00 83 995.9
20260509220831 22 110 0.0 0.0 0.00 0.00 0.00 82 995.9
20260509220328 22 84 0.0 0.0 0.00 0.00 0.00 80 995.9
20260509215823 22 140 0.0 0.0 0.00 0.00 0.00 80 995.9
20260509215320 22 86 0.0 0.0 0.00 0.00 0.00 81 996.0
20260509214817 22 91 0.0 0.0 0.00 0.00 0.00 80 995.8
20260509214314 22 89 0.0 0.0 0.00 0.00 0.00 80 995.7
20260509213811 22 92 0.0 0.0 0.00 0.00 0.00 79 995.8
20260509213307 22 93 0.0 0.0 0.00 0.00 0.00 79 995.8
20260509212804 22 86 0.0 0.0 0.00 0.00 0.00 80 995.7
20260509212305 22 100 0.0 0.0 0.00 0.00 0.00 80 995.7
20260509211757 22 101 0.0 0.0 0.00 0.00 0.00 79 995.9
20260509211253 22 102 0.0 0.0 0.00 0.00 0.00 77 995.7
20260509210750 23 104 0.0 0.0 0.00 0.00 0.00 76 995.7
20260509210248 22 109 0.0 0.0 0.00 0.00 0.00 77 995.7
20260509205747 23 91 0.0 0.0 0.00 0.00 0.00 76 995.7
20260509205242 23 114 0.0 0.0 0.00 0.00 0.00 80 995.6
20260509204738 22 91 0.0 0.0 0.00 0.00 0.00 78 995.9
20260509204235 22 113 0.0 0.0 0.00 0.00 0.00 79 995.6
20260509203731 23 111 0.0 0.0 0.00 0.00 0.00 74 995.7
20260509203229 23 88 0.0 0.0 0.00 0.00 0.00 73 995.6
20260509202725 23 135 0.0 0.0 0.00 0.00 0.00 72 995.8